Starlink 2508

decayed
NORAD ID: 48456 Int'l Des: 2021-040 Owner: SPXS Country: US Constellation: starlink
LEOCIRCULAR
グループ

Starlink 2508について

説明を読み込み中...

高度履歴

Altitude vs Time

uPlot chart will show altitude changes over time

軌道要素

1 48456U 21040AE 24226.21103635 .20148693 11980-4 56285-2 0 9995
2 48456 53.0322 156.4994 0001681 173.9370 346.1409 16.27090294181904
Epoch: Aug 13, 2024 • Age: 11703 hours

現在のステータス

Position data unavailable
打ち上げ日 May 9, 2021
運用期間 4.5 years
落下予定日 Aug 13, 2024
タイプ internet

技術仕様

分類 Payload
質量 260.00 kg
乾燥質量 248.00 kg
総質量 260.00 kg
長さ 0.20 m
直径 2.80 m
スパン 9.00 m
形状 Box + pan
製造者 SPXS
バスタイプ Starlink
フェーズステータス Reentered
所有者/国 SPXS/US

大規模コンステレーション

Loading constellations...